[[{"header":{"parameterUnit":"m.s-1","parameterCategory":1,"la1":30.2991,"la2":30.254,"lo1":-89.0895,"lo2":-89.0444,"dy":0.0017,"dx":0.0017,"nx":28,"ny":28,"refTime":"2025-07-18T09:00:00:Z","depth":0,"parameterNumber":2,"parameterNumberName":"U-component_of_WINDS"},"data":[0,0,0,0,0,0,0,0,0,0,0,0,0,0,0,0,0,0,0,0,0,0,0,0,0,0,0,0,0,0,0,0,0,0,0,0,0,0,0,0,0,0,0,0,0,0,0,0,0,0,0,0,0,0,0,0,0,0,1.7526,1.7527,0,1.7606,1.7607,1.7608,1.7598,1.7597,1.7596,1.7595,1.7681,1.7685,1.7688,0,0,0,0,0,0,0,0,0,0,0,0,0,1.7369,1.7372,1.7526,1.7527,1.7528,1.7606,1.7607,1.7608,1.7599,1.7597,1.7596,1.7594,1.768,1.7684,1.7688,0,0,0,0,0,0,0,0,0,0,0,0,0,1.7442,1.7373,1.7526,1.7532,1.7534,1.7606,1.7607,1.7608,1.7599,1.7597,1.7595,1.7593,1.7679,1.7684,1.7689,1.7761,0,0,1.7705,1.7707,0,0,0,0,0,0,0,0,1.7438,1.7448,1.753,1.7532,1.7534,1.759,1.7583,1.766,1.76,1.7574,1.7595,1.7592,1.7653,1.766,1.768,1.7765,1.7768,1.7706,1.7709,1.7711,1.7713,0,0,0,0,0,0,0,1.7433,1.7444,1.7558,1.7532,1.7534,1.7533,1.7541,1.7598,1.7624,1.7576,1.7576,1.7585,1.7653,1.7675,1.7682,1.777,1.7706,1.771,1.7713,1.7716,1.7919,1.7921,0,0,0,0,0,0,1.7426,1.744,1.7555,1.756,1.748,1.7537,1.7547,1.7574,1.7623,1.7629,1.7587,1.7585,1.7666,1.7675,1.7685,1.7773,1.7711,1.7716,1.7719,1.7917,1.792,1.7922,0,0,0,0,0,0,1.7422,1.7436,1.7552,1.75,1.7515,1.7542,1.7573,1.7577,1.7598,1.7631,1.7636,1.7603,1.7665,1.7677,1.7742,1.7776,1.7718,1.7723,1.7914,1.7918,1.7921,1.7949,0,0,0,0,0,0,1.7418,1.7435,1.7461,1.7501,1.7517,1.7607,1.7575,1.758,1.7606,1.7604,1.7648,1.7653,1.7665,1.7734,1.7747,1.7782,1.7727,1.7912,1.7916,1.792,1.7946,1.7953,1.796,0,0,0,0,0,1.7412,1.7467,1.7462,1.7476,1.7551,1.7608,1.7618,1.7629,1.7609,1.7637,1.7658,1.7652,1.7769,1.7741,1.7755,1.7792,1.791,1.7915,1.792,1.7942,1.7952,1.796,0,0,0,0,0,0,1.7432,1.7472,1.7468,1.7536,1.7569,1.7607,1.7642,1.7639,1.7679,1.7675,1.7688,1.7698,1.7764,1.7784,1.7752,1.7865,1.7837,1.7845,1.7849,1.7859,1.7866,1.786,1.7732,0,0,0,0,0,1.7444,1.7486,1.7519,1.7576,1.7593,1.7615,1.764,1.7645,1.768,1.7695,1.7721,1.7756,1.7801,1.7831,1.7874,1.7948,1.7958,1.7981,1.7988,1.7994,1.8001,1.8043,1.8054,1.7939,1.7939,1.7939,0,0,1.747,1.7497,1.7523,1.7581,1.7607,1.7652,1.7626,1.7675,1.7709,1.7702,1.7765,1.7785,1.7826,1.7896,1.7928,1.7915,1.8035,1.8,1.8004,1.8009,1.805,1.8061,1.807,1.7942,1.7942,1.7941,0,0,1.754,1.7564,1.7615,1.7641,1.768,1.7694,1.7706,1.7745,1.7758,1.7821,1.7817,1.7858,1.7935,1.7965,1.799,1.8071,1.8068,1.8085,1.8123,1.8164,1.8173,1.8182,1.8212,1.8223,1.8092,1.8092,1.8092,0,1.7568,1.7634,1.7642,1.7691,1.7717,1.7712,1.7765,1.7791,1.7842,1.7862,1.7846,1.7943,1.7969,1.8047,1.8067,1.8087,1.8103,1.8081,1.8171,1.8179,1.8187,1.8217,1.8228,1.8094,1.8094,1.8094,1.8093,0,1.7667,1.7713,1.775,1.7799,1.7829,1.788,1.7897,1.7927,1.793,1.7946,1.8011,1.8043,1.8093,1.8111,1.8115,1.819,1.8181,1.8168,1.814,1.82,1.8228,1.8239,1.8097,1.8096,1.8096,1.8095,0,0,1.7753,1.7805,1.7819,1.7842,1.7884,1.7921,1.7972,1.8019,1.8046,1.8081,1.8126,1.8191,1.8179,1.8208,1.8215,1.825,1.8315,1.8233,1.8235,1.8249,1.8402,1.8412,1.8425,1.8312,1.8314,1.8316,1.8399,0,1.7829,1.7918,1.7927,1.8007,1.8051,1.8046,1.8091,1.8123,1.8139,1.818,1.8198,1.8245,1.8225,1.8243,1.8277,1.83,1.8346,1.8293,1.8356,1.8358,1.8347,1.844,1.8451,1.8528,1.841,1.8412,1.8413,0,1.793,1.7968,1.8052,1.8089,1.8108,1.8147,1.8192,1.823,1.8267,1.8276,1.8308,1.831,1.8364,1.8333,1.8409,1.8374,1.8399,1.8414,1.8417,1.8425,1.839,1.8452,1.8553,1.8565,1.843,1.8429,1.8427,0,1.7987,1.8059,1.8118,1.8138,1.8182,1.821,1.823,1.8265,1.8293,1.8333,1.8352,1.8397,1.8423,1.8459,1.8474,1.845,1.855,1.852,1.8561,1.8561,1.8584,1.8583,1.8693,1.8598,1.8598,1.8597,1.8597,0,1.8072,1.8124,1.8145,1.8182,1.8241,1.825,1.8309,1.8328,1.8359,1.8401,1.8399,1.8439,1.8455,1.8498,1.851,1.8573,1.8584,1.8595,1.8598,1.8596,1.8595,1.8615,1.861,1.86,1.86,1.8599,1.8599,0,1.8146,1.8162,1.8227,1.8263,1.8273,1.8315,1.8347,1.8384,1.8399,1.8453,1.8466,1.8491,1.8541,1.8559,1.8621,1.8629,1.8702,1.8699,1.8689,1.869,1.8732,1.8728,1.8859,1.8878,1.8769,1.877,1.8771,0,1.8201,1.824,1.8281,1.8308,1.8329,1.8373,1.8401,1.8413,1.8443,1.8488,1.852,1.8569,1.861,1.8691,1.8715,1.8763,1.8763,1.8805,1.877,1.8767,1.8766,1.8764,1.8769,1.8813,1.8814,1.8815,1.8815,0,1.8296,1.8301,1.8342,1.8385,1.8419,1.8454,1.8488,1.8511,1.8528,1.8562,1.8613,1.8644,1.8706,1.8757,1.8805,1.8827,1.8826,1.8826,1.8838,1.8838,1.8831,1.8838,1.8709,1.8823,1.8823,1.8822,1.8822,1.8821,1.8363,1.8399,1.8433,1.8478,1.8505,1.8537,1.8573,1.8593,1.8635,1.8685,1.869,1.8745,1.8782,1.8846,1.8871,1.8915,1.8904,1.8921,1.8926,1.8931,1.8935,1.8822,1.8924,1.8924,1.8923,1.8923,1.8923,0,1.846,1.8482,1.8523,1.857,1.8606,1.8598,1.8636,1.8667,1.8715,1.8749,1.8788,1.8847,1.8896,1.8924,1.8973,1.9003,1.9004,1.9016,1.9015,1.9021,1.8941,1.8927,1.9015,1.9015,1.9015,1.9015,1.9015,1.9015,1.8515,1.8576,1.8585,1.8659,1.868,1.8733,1.8756,1.8786,1.8813,1.8878,1.8918,1.8935,1.8967,1.9018,1.9063,1.907,1.9089,1.9103,1.911,1.9036,1.9026,1.9017,1.9003,1.9107,1.9107,1.9186,1.9186,1.9187]},{"header":{"parameterUnit":"m.s-1","parameterCategory":1,"la1":30.2991,"la2":30.254,"lo1":-89.0895,"lo2":-89.0444,"dy":0.0017,"dx":0.0017,"nx":28,"ny":28,"refTime":"2025-07-18T09:00:00:Z","depth":0,"parameterNumber":3,"parameterNumberName":"V-component_of_WINDS"},"data":[0,0,0,0,0,0,0,0,0,0,0,0,0,0,0,0,0,0,0,0,0,0,0,0,0,0,0,0,0,0,0,0,0,0,0,0,0,0,0,0,0,0,0,0,0,0,0,0,0,0,0,0,0,0,0,0,0,0,3.9971,3.9972,0,4.0074,4.0076,4.0077,4.0077,4.0076,4.0074,4.0073,4.017,4.0174,4.0177,0,0,0,0,0,0,0,0,0,0,0,0,0,3.9764,3.9768,3.9971,3.9972,3.9974,4.0074,4.0076,4.0077,4.0077,4.0075,4.0074,4.0072,4.0169,4.0173,4.0178,0,0,0,0,0,0,0,0,0,0,0,0,0,3.9859,3.9769,3.9971,3.9986,3.9988,4.0074,4.0076,4.0077,4.0077,4.0075,4.0073,4.0072,4.0167,4.0173,4.0178,4.0253,0,0,4.0196,4.0198,0,0,0,0,0,0,0,0,3.9853,3.9866,3.9982,3.9985,3.9988,4.0061,4.0038,4.0136,4.0078,4.0043,4.0073,4.0071,4.0135,4.0143,4.0166,4.0257,4.0262,4.0196,4.02,4.0202,4.0204,0,0,0,0,0,0,0,3.9847,3.9862,4.0012,3.9984,3.9987,3.9984,3.9996,4.0057,4.0098,4.0046,4.0046,4.0059,4.0136,4.0161,4.0169,4.0263,4.0196,4.0201,4.0205,4.0207,4.0419,4.0421,0,0,0,0,0,0,3.9839,3.9856,4.0008,4.0015,3.9915,3.999,4.0002,4.0039,4.0098,4.0105,4.0061,4.0059,4.0152,4.0162,4.0172,4.0263,4.0202,4.0208,4.0211,4.0417,4.042,4.0422,0,0,0,0,0,0,3.9834,3.9852,4.0004,3.9936,3.9955,3.9996,4.0037,4.0042,4.0068,4.0109,4.0115,4.008,4.0151,4.0164,4.0233,4.0266,4.021,4.0215,4.0414,4.0418,4.0421,4.0446,0,0,0,0,0,0,3.9828,3.9851,3.9882,3.9937,3.9959,4.0067,4.0039,4.0046,4.0079,4.0077,4.0128,4.0135,4.015,4.0225,4.0239,4.0273,4.022,4.0412,4.0416,4.042,4.0442,4.045,4.0456,0,0,0,0,0,3.9821,3.9883,3.9883,3.9902,3.9999,4.0069,4.0081,4.01,4.0081,4.0111,4.0138,4.0133,4.026,4.0232,4.0248,4.0284,4.041,4.0415,4.042,4.0439,4.0448,4.0456,0,0,0,0,0,0,3.9827,3.989,3.9892,3.9974,4.0016,4.0069,4.0107,4.0109,4.0155,4.0152,4.0171,4.0182,4.0251,4.0274,4.0241,4.0359,4.0332,4.0341,4.0342,4.0351,4.0357,4.035,4.0224,0,0,0,0,0,3.9839,3.9894,3.9944,4.0011,4.0033,4.0066,4.0097,4.0109,4.0152,4.0169,4.0201,4.0241,4.0289,4.0321,4.0368,4.0445,4.0456,4.0478,4.0485,4.049,4.0497,4.0539,4.0549,4.0439,4.0438,4.0438,0,0,3.9862,3.9903,3.9936,4.0014,4.0048,4.0101,4.0081,4.0138,4.0177,4.0177,4.0246,4.027,4.0315,4.0388,4.0422,4.041,4.053,4.0497,4.0501,4.0505,4.0545,4.0555,4.0565,4.0442,4.0441,4.0441,0,0,3.9932,3.997,4.003,4.0065,4.0119,4.014,4.0155,4.0207,4.0224,4.0294,4.0294,4.0339,4.0423,4.0455,4.0483,4.0564,4.0561,4.0579,4.0615,4.0655,4.0664,4.0671,4.07,4.071,4.0585,4.0586,4.0586,0,3.9954,4.0038,4.006,4.0118,4.0151,4.0156,4.0216,4.0248,4.0312,4.0334,4.0319,4.0425,4.0456,4.0537,4.0557,4.0579,4.0594,4.0573,4.0661,4.0669,4.0677,4.0704,4.0715,4.0587,4.0587,4.0587,4.0587,0,4.0061,4.0119,4.016,4.0227,4.0264,4.0322,4.0351,4.0385,4.0393,4.0415,4.0485,4.0522,4.0577,4.0596,4.0603,4.0678,4.0669,4.0658,4.0631,4.0689,4.0715,4.0726,4.059,4.0589,4.0589,4.0588,0,0,4.0139,4.0217,4.0232,4.0262,4.0321,4.0364,4.0421,4.0478,4.0507,4.055,4.0597,4.0668,4.0659,4.069,4.07,4.0735,4.0797,4.0719,4.0721,4.0732,4.088,4.0889,4.0901,4.0795,4.0797,4.0799,4.0877,0,4.0216,4.0322,4.0343,4.0434,4.0486,4.0491,4.054,4.058,4.0602,4.0647,4.0669,4.072,4.0703,4.0722,4.0757,4.0782,4.0827,4.0777,4.0837,4.0839,4.0827,4.0915,4.0924,4.0996,4.0887,4.0889,4.089,0,4.032,4.037,4.0466,4.0518,4.0541,4.0586,4.0639,4.0683,4.0726,4.0739,4.0775,4.0781,4.0837,4.0808,4.0885,4.0851,4.0876,4.0892,4.0895,4.0901,4.0868,4.0923,4.1019,4.103,4.0906,4.0905,4.0904,0,4.0367,4.0457,4.0527,4.0552,4.0614,4.0646,4.0672,4.0714,4.0747,4.0792,4.0813,4.0862,4.089,4.0927,4.0945,4.0922,4.1021,4.0993,4.1031,4.1031,4.1052,4.1051,4.1153,4.1068,4.1068,4.1068,4.1068,0,4.045,4.0509,4.055,4.0592,4.0658,4.068,4.0743,4.0768,4.0806,4.0851,4.0857,4.0898,4.092,4.0965,4.0979,4.104,4.1052,4.1063,4.1066,4.1063,4.1061,4.108,4.1075,4.1071,4.107,4.107,4.1069,0,4.0514,4.0544,4.062,4.0673,4.0688,4.0734,4.0777,4.0817,4.0839,4.0897,4.0911,4.0944,4.0997,4.1019,4.1082,4.1092,4.1162,4.1161,4.1148,4.1149,4.1187,4.1183,4.1305,4.1322,4.1226,4.1226,4.1227,0,4.0566,4.0612,4.0671,4.0704,4.0732,4.0784,4.0818,4.084,4.0875,4.0928,4.0961,4.1014,4.1058,4.1141,4.1169,4.1217,4.1217,4.1257,4.1224,4.122,4.1218,4.1215,4.1219,4.1263,4.1264,4.1264,4.1265,0,4.0655,4.0667,4.0718,4.0773,4.0814,4.0858,4.0901,4.0926,4.0955,4.0992,4.1048,4.1082,4.1148,4.12,4.125,4.1274,4.1274,4.1275,4.1287,4.1284,4.1275,4.128,4.1165,4.1272,4.1271,4.1271,4.1271,4.127,4.0714,4.0755,4.0803,4.0859,4.0894,4.0934,4.0974,4.1002,4.105,4.1108,4.1117,4.1176,4.1216,4.1284,4.131,4.1354,4.1344,4.136,4.1364,4.1368,4.1371,4.1268,4.1363,4.1363,4.1362,4.1362,4.1362,0,4.0803,4.0834,4.0885,4.0947,4.099,4.0989,4.1036,4.1071,4.1124,4.1163,4.1207,4.127,4.132,4.1352,4.1402,4.1432,4.1433,4.1444,4.1442,4.1447,4.1377,4.1362,4.1442,4.1442,4.1442,4.1442,4.1442,4.1442,4.0854,4.0924,4.0942,4.1027,4.1057,4.1118,4.1145,4.118,4.1212,4.1284,4.1327,4.1348,4.1384,4.1437,4.1482,4.149,4.1508,4.152,4.1527,4.1461,4.1452,4.1444,4.1431,4.1524,4.1524,4.1593,4.1594,4.1595]}]]